FW3222 Weather Reports


Display with metric or nautical units.
time (UTC)temp
F
wind
direction
speed
MPH
gust
MPH
rain 1hr
in
rain 24hr
in
rain mn
in
humidity
%
barometer
mb
20260506230111 64 275 3.0 9.0 0.00 0.29 0.28 59 1009.3
20260506225809 64 284 2.0 12.0 0.00 0.29 0.28 61 1009.3
20260506225457 64 284 3.0 12.0 0.00 0.29 0.28 61 1009.2
20260506225159 65 274 4.0 12.0 0.00 0.29 0.28 61 1009.2
20260506224442 65 318 5.0 12.0 0.00 0.29 0.28 60 1009.2
20260506224145 65 294 4.0 12.0 0.00 0.29 0.28 61 1009.0
20260506223844 65 275 4.0 11.0 0.00 0.29 0.28 60 1009.0
20260506223543 66 279 4.0 11.0 0.00 0.29 0.28 60 1009.0
20260506222819 66 275 4.0 8.0 0.00 0.29 0.28 61 1008.8
20260506222511 66 296 3.0 8.0 0.00 0.29 0.28 61 1008.8
20260506222159 67 312 3.0 10.0 0.00 0.29 0.28 62 1008.8
20260506221858 67 257 3.0 10.0 0.00 0.29 0.28 62 1008.5
20260506221602 67 303 3.0 10.0 0.00 0.29 0.28 62 1008.5
20260506221303 67 275 4.0 10.0 0.00 0.29 0.28 62 1008.5
20260506221005 67 316 3.0 10.0 0.00 0.29 0.28 62 1008.4
20260506220249 67 225 2.0 6.0 0.00 0.29 0.28 64 1008.3
20260506215951 67 336 2.0 6.0 0.00 0.29 0.28 64 1008.2
20260506215656 67 248 2.0 9.0 0.00 0.29 0.28 64 1008.1
20260506215343 67 73 2.0 9.0 0.00 0.29 0.28 64 1008.0
20260506215041 67 167 2.0 9.0 0.00 0.29 0.28 64 1008.1
20260506214730 67 227 2.0 9.0 0.00 0.29 0.28 64 1008.1
20260506214433 67 277 2.0 9.0 0.00 0.29 0.28 64 1008.0
20260506213655 67 271 2.0 8.0 0.00 0.29 0.28 64 1007.9
20260506212517 68 256 2.0 7.0 0.00 0.29 0.28 64 1007.7
20260506212220 68 347 2.0 7.0 0.00 0.29 0.28 64 1007.7
20260506211914 68 217 1.0 7.0 0.00 0.29 0.28 64 1007.5
20260506211610 68 301 2.0 7.0 0.00 0.29 0.28 64 1007.6
20260506211306 68 5 2.0 7.0 0.00 0.29 0.28 64 1007.5
20260506210551 68 171 1.0 5.0 0.00 0.29 0.28 65 1007.5
20260506210254 68 215 1.0 6.0 0.00 0.29 0.28 65 1007.4
20260506205532 67 209 1.0 6.0 0.00 0.29 0.28 64 1007.3
20260506205226 68 221 1.0 6.0 0.00 0.29 0.28 64 1007.4
20260506204924 68 251 1.0 6.0 0.00 0.29 0.28 65 1007.3
20260506204621 68 202 0.0 6.0 0.00 0.29 0.28 64 1007.2
20260506204318 68 254 0.0 6.0 0.00 0.29 0.28 65 1007.4
20260506204006 68 217 1.0 6.0 0.00 0.29 0.28 65 1007.4
20260506203652 68 227 1.0 6.0 0.00 0.29 0.28 64 1007.3
20260506203343 68 223 2.0 6.0 0.00 0.29 0.28 64 1007.2
20260506203041 68 218 2.0 9.0 0.00 0.29 0.28 64 1007.2
20260506202740 68 228 2.0 9.0 0.00 0.29 0.28 64 1007.3
20260506202025 68 253 2.0 11.0 0.00 0.29 0.28 64 1007.2
20260506201714 68 282 2.0 11.0 0.00 0.29 0.28 64 1007.2
20260506201417 68 275 3.0 11.0 0.00 0.29 0.28 64 1007.2
20260506201105 68 257 3.0 11.0 0.00 0.29 0.28 65 1007.3
20260506200804 68 33 4.0 11.0 0.00 0.29 0.28 64 1007.2
20260506200455 68 273 3.0 11.0 0.00 0.29 0.28 64 1007.3
20260506200146 68 297 3.0 10.0 0.00 0.29 0.28 64 1007.3
20260506195836 68 211 3.0 10.0 0.00 0.29 0.28 64 1007.3
20260506195056 68 234 3.0 10.0 0.00 0.29 0.28 66 1007.2
20260506194327 67 263 2.0 13.0 0.00 0.29 0.28 66 1007.2
20260506193553 66 126 3.0 13.0 0.00 0.29 0.28 66 1007.4
20260506192825 65 184 3.0 13.0 0.00 0.29 0.28 67 1007.6
20260506192106 65 169 2.0 8.0 0.00 0.29 0.28 67 1007.7
20260506191757 65 215 2.0 7.0 0.00 0.29 0.28 67 1007.7
20260506191450 65 222 2.0 7.0 0.00 0.29 0.28 67 1007.7
20260506191136 65 222 2.0 9.0 0.00 0.29 0.28 67 1007.8
20260506190833 64 248 2.0 9.0 0.00 0.29 0.28 68 1007.7
20260506190523 64 257 2.0 9.0 0.00 0.29 0.28 68 1007.7
20260506190216 64 298 2.0 9.0 0.00 0.29 0.28 68 1007.8
20260506185908 64 176 2.0 9.0 0.00 0.29 0.28 68 1007.7
20260506185137 64 218 2.0 6.0 0.00 0.29 0.28 70 1007.8
20260506184826 64 200 1.0 5.0 0.00 0.29 0.28 72 1007.9
20260506184528 63 250 2.0 5.0 0.00 0.29 0.28 74 1007.8
20260506184215 63 309 2.0 5.0 0.00 0.29 0.28 74 1007.8
20260506183911 63 215 1.0 5.0 0.00 0.29 0.28 77 1007.8
20260506183149 63 355 0.0 1.0 0.00 0.29 0.28 77 1007.9
20260506182424 63 92 0.0 5.0 0.00 0.29 0.28 77 1007.9
20260506182120 63 39 0.0 5.0 0.00 0.29 0.28 78 1007.9
20260506181824 63 102 0.0 5.0 0.00 0.29 0.28 78 1007.9
20260506180634 63 117 0.0 3.0 0.00 0.29 0.28 78 1007.9
20260506180325 63 86 1.0 3.0 0.00 0.29 0.28 78 1007.9
20260506180027 63 81 0.0 3.0 0.00 0.29 0.28 78 1007.9
20260506175718 63 67 0.0 2.0 0.00 0.29 0.28 78 1008.1
20260506175415 63 59 0.0 1.0 0.00 0.29 0.28 78 1008.0
20260506175103 63 84 0.0 1.0 0.00 0.29 0.28 78 1008.0
20260506174803 62 84 0.0 1.0 0.00 0.29 0.28 78 1008.0
20260506174500 62 87 1.0 3.0 0.00 0.29 0.28 78 1008.0
20260506174156 62 71 1.0 3.0 0.00 0.29 0.28 78 1008.0
20260506173854 62 101 0.0 3.0 0.00 0.29 0.28 78 1007.9
20260506173544 62 124 0.0 2.0 0.00 0.29 0.28 78 1007.9
20260506173241 62 101 0.0 2.0 0.00 0.29 0.28 78 1007.9
20260506172935 62 86 0.0 2.0 0.00 0.29 0.28 78 1007.9
20260506172626 61 97 0.0 2.0 0.00 0.29 0.28 78 1008.1
20260506172316 61 101 0.0 1.0 0.00 0.29 0.28 78 1008.0
20260506170705 61 74 0.0 0.0 0.00 0.29 0.28 77 1008.1
20260506170408 61 80 0.0 0.0 0.00 0.29 0.28 77 1008.2
20260506170105 61 81 0.0 0.0 0.00 0.29 0.28 76 1008.1
20260506165754 61 323 0.0 0.0 0.00 0.29 0.28 76 1008.2
20260506165449 61 323 0.0 0.0 0.00 0.29 0.28 76 1008.1
20260506165145 61 331 0.0 1.0 0.00 0.29 0.28 76 1008.2
20260506164845 61 322 0.0 1.0 0.00 0.29 0.28 76 1008.2
20260506164545 61 32 0.0 0.0 0.00 0.29 0.28 76 1008.1
20260506164235 61 39 0.0 2.0 0.00 0.29 0.28 76 1008.0
20260506163924 61 13 0.0 2.0 0.00 0.29 0.28 76 1008.1
20260506162751 61 305 0.0 2.0 0.00 0.29 0.28 76 1008.0
20260506162039 62 5 0.0 2.0 0.00 0.29 0.28 77 1008.2
20260506160844 61 113 0.0 0.0 0.00 0.29 0.28 77 1008.0
20260506160548 61 113 0.0 3.0 0.00 0.29 0.28 77 1008.0
20260506160251 61 175 0.0 6.0 0.00 0.29 0.28 77 1008.1
20260506155945 61 169 0.0 6.0 0.00 0.29 0.28 77 1008.1
20260506155636 61 246 0.0 6.0 0.00 0.29 0.28 77 1008.1
20260506155327 61 269 1.0 6.0 0.00 0.29 0.28 77 1008.0
20260506155030 61 253 1.0 6.0 0.00 0.29 0.28 77 1007.8
20260506154300 61 236 0.0 1.0 0.00 0.29 0.28 77 1007.9
20260506154004 61 119 0.0 0.0 0.00 0.29 0.28 77 1007.9
20260506153243 61 300 0.0 0.0 0.00 0.29 0.28 77 1007.9
20260506152940 61 300 0.0 0.0 0.00 0.29 0.28 77 1007.9
20260506152218 61 300 0.0 0.0 0.00 0.29 0.28 76 1008.1
20260506151907 61 313 0.0 0.0 0.00 0.29 0.28 76 1008.0
20260506151136 61 11 0.0 1.0 0.04 0.29 0.28 74 1007.6
20260506150824 61 301 0.0 1.0 0.05 0.29 0.28 74 1007.5
20260506150512 61 294 0.0 1.0 0.06 0.29 0.28 74 1007.6
20260506150215 61 9 0.0 0.0 0.08 0.29 0.28 74 1007.5
20260506145441 61 336 0.0 0.0 0.09 0.27 0.27 74 1007.8
20260506145140 61 286 0.0 0.0 0.17 0.27 0.27 74 1008.1
20260506144831 61 286 0.0 1.0 0.19 0.26 0.27 73 1008.1
20260506144526 61 190 0.0 0.0 0.09 0.26 0.27 71 1008.1
20260506144226 61 173 0.0 0.0 0.15 0.26 0.26 71 1008.0
20260506143456 61 143 0.0 5.0 0.12 0.24 0.24 70 1008.3
20260506142737 60 220 0.0 5.0 0.16 0.23 0.23 69 1008.5
20260506142426 61 167 0.0 5.0 0.21 0.21 0.21 69 1008.5
20260506142115 61 192 0.0 5.0 0.16 0.21 0.21 68 1008.5
20260506141801 61 185 0.0 5.0 0.16 0.19 0.20 69 1008.7
20260506141458 61 210 0.0 3.0 0.15 0.19 0.19 68 1008.7
20260506141157 61 134 0.0 0.0 0.17 0.18 0.18 68 1008.7
20260506140850 61 109 1.0 8.0 0.21 0.16 0.18 68 1008.6
20260506140126 61 134 1.0 8.0 0.27 0.13 0.13 68 1008.5
20260506135819 61 220 1.0 8.0 0.13 0.12 0.13 68 1008.6
20260506135510 61 198 2.0 8.0 0.35 0.12 0.12 68 1008.6
20260506134739 61 167 2.0 6.0 0.04 0.09 0.10 68 1008.4
20260506134438 61 214 2.0 6.0 0.05 0.09 0.10 68 1008.3
20260506133709 61 244 1.0 5.0 0.06 0.09 0.10 68 1008.3
20260506132516 60 150 0.0 2.0 0.08 0.09 0.09 67 1008.3
20260506132216 60 232 0.0 0.0 0.09 0.08 0.08 67 1008.3
20260506131906 60 231 0.0 0.0 0.10 0.08 0.08 67 1008.3
20260506130726 61 39 0.0 2.0 0.00 0.06 0.06 66 1008.2
20260506125951 61 290 0.0 0.0 0.00 0.06 0.06 66 1008.6
20260506125652 61 299 0.0 0.0 0.00 0.06 0.06 66 1008.5
20260506125350 61 224 0.0 0.0 0.00 0.06 0.06 66 1008.4
20260506125049 61 173 0.0 0.0 0.00 0.06 0.06 66 1008.4
20260506124339 61 248 0.0 0.0 0.00 0.06 0.06 66 1008.3
20260506123150 61 123 0.0 2.0 0.00 0.04 0.05 66 1008.4
20260506122846 61 67 0.0 1.0 0.00 0.04 0.05 66 1008.5
20260506122546 61 246 0.0 1.0 0.04 0.04 0.05 66 1008.6
20260506122250 61 218 0.0 0.0 0.04 0.04 0.05 65 1008.7
20260506121534 61 81 0.0 0.0 0.04 0.04 0.05 65 1008.6
20260506121229 61 81 0.0 0.0 0.04 0.04 0.05 65 1008.6
20260506120925 61 81 0.0 0.0 0.04 0.04 0.05 65 1008.6
20260506120618 61 81 0.0 0.0 0.05 0.04 0.04 64 1008.7
20260506120317 61 81 0.0 0.0 0.06 0.04 0.04 65 1008.8
20260506120019 61 81 0.0 0.0 0.06 0.04 0.04 64 1008.7
20260506115717 61 80 0.0 0.0 0.06 0.04 0.04 65 1008.8
20260506114946 61 63 0.0 0.0 0.06 0.03 0.03 64 1008.7
20260506114639 62 63 0.0 4.0 0.06 0.03 0.03 64 1008.7
20260506114326 62 152 1.0 4.0 0.04 0.02 0.02 63 1008.9
20260506114019 62 161 0.0 3.0 0.04 0.02 0.02 63 1008.9
20260506113251 63 156 0.0 3.0 0.00 0.01 0.01 62 1008.6
20260506112946 63 194 0.0 3.0 0.00 0.01 0.01 61 1008.7
20260506112640 63 216 0.0 0.0 0.00 0.01 0.01 60 1008.5
20260506112341 64 117 0.0 7.0 0.00 0.01 0.01 60 1008.5
20260506112042 64 236 1.0 7.0 0.00 0.01 0.01 59 1008.5
20260506111743 64 186 1.0 7.0 0.00 0.00 0.00 58 1008.3
20260506111433 64 222 1.0 7.0 0.00 0.00 0.00 57 1008.3
20260506111131 65 107 1.0 6.0 0.00 0.00 0.00 56 1008.3
20260506110823 65 177 1.0 6.0 0.00 0.00 0.00 55 1008.2
20260506110520 65 345 1.0 11.0 0.00 0.00 0.00 54 1008.3
20260506110217 65 203 2.0 11.0 0.00 0.00 0.00 53 1008.1
20260506105904 65 193 2.0 11.0 0.00 0.00 0.00 52 1008.0
20260506105147 65 175 3.0 11.0 0.00 0.00 0.00 52 1008.0
20260506104419 66 140 2.0 7.0 0.00 0.00 0.00 51 1007.9
20260506103706 66 234 2.0 7.0 0.00 0.00 0.00 49 1007.9
20260506103410 66 205 2.0 7.0 0.00 0.00 0.00 49 1007.7
20260506103110 66 218 1.0 7.0 0.00 0.00 0.00 49 1007.8
20260506102803 66 143 2.0 7.0 0.00 0.00 0.00 48 1007.8
20260506102450 66 197 2.0 7.0 0.00 0.00 0.00 49 1007.6
20260506102151 66 315 2.0 8.0 0.00 0.00 0.00 48 1007.6
20260506101841 66 174 2.0 8.0 0.00 0.00 0.00 48 1007.6
20260506101121 66 176 2.0 8.0 0.00 0.00 0.00 48 1007.5
20260506100348 66 207 2.0 8.0 0.00 0.00 0.00 48 1007.5
20260506100045 66 184 2.0 7.0 0.00 0.00 0.00 48 1007.4
20260506095314 66 125 2.0 9.0 0.00 0.00 0.00 47 1007.4
20260506095013 66 223 2.0 9.0 0.00 0.00 0.00 47 1007.4
20260506094705 66 229 3.0 9.0 0.00 0.00 0.00 47 1007.5
20260506094407 66 191 3.0 9.0 0.00 0.00 0.00 47 1007.5
20260506094107 66 249 3.0 9.0 0.00 0.00 0.00 47 1007.5
20260506093808 66 176 2.0 8.0 0.00 0.00 0.00 47 1007.5
20260506093049 66 115 2.0 8.0 0.00 0.00 0.00 48 1007.3
20260506092750 66 146 2.0 10.0 0.00 0.00 0.00 47 1007.4
20260506092450 66 216 2.0 10.0 0.00 0.00 0.00 47 1007.4
20260506092149 66 207 2.0 10.0 0.00 0.00 0.00 46 1007.5
20260506091845 66 207 2.0 10.0 0.00 0.00 0.00 46 1007.3
20260506091549 66 264 2.0 10.0 0.00 0.00 0.00 47 1007.4
20260506091237 66 194 3.0 10.0 0.00 0.00 0.00 46 1007.5
20260506090940 66 192 2.0 10.0 0.00 0.00 0.00 46 1007.6
20260506090633 67 196 2.0 8.0 0.00 0.00 0.00 47 1007.7
20260506090322 66 197 2.0 11.0 0.00 0.00 0.00 46 1007.7
20260506090018 66 279 2.0 11.0 0.00 0.00 0.00 47 1007.8
20260506085706 66 205 2.0 11.0 0.00 0.00 0.00 46 1007.9
20260506085407 66 207 2.0 11.0 0.00 0.00 0.00 46 1007.9
20260506084651 66 323 3.0 11.0 0.00 0.00 0.00 46 1007.8
20260506084355 66 258 3.0 9.0 0.00 0.00 0.00 46 1007.9
20260506084042 66 213 3.0 9.0 0.00 0.00 0.00 46 1007.9
20260506083741 66 209 2.0 9.0 0.00 0.00 0.00 47 1007.9
20260506083437 66 169 2.0 8.0 0.00 0.00 0.00 47 1007.9
20260506083137 66 153 2.0 8.0 0.00 0.00 0.00 46 1007.9
20260506082841 66 22 1.0 6.0 0.00 0.00 0.00 46 1007.8
20260506082533 66 165 2.0 6.0 0.00 0.00 0.00 46 1007.8
20260506082222 66 211 2.0 6.0 0.00 0.00 0.00 46 1007.9
20260506081921 66 172 1.0 6.0 0.00 0.00 0.00 46 1007.9
20260506081618 66 201 1.0 5.0 0.00 0.00 0.00 46 1007.8
20260506081312 66 156 0.0 5.0 0.00 0.00 0.00 46 1007.8
20260506081002 66 221 0.0 4.0 0.00 0.00 0.00 45 1007.7
20260506080655 66 192 0.0 4.0 0.00 0.00 0.00 45 1007.8
20260506073050 66 146 0.0 5.0 0.00 0.00 0.00 45 1007.9
20260506072745 66 150 0.0 5.0 0.00 0.00 0.00 45 1007.9
20260506072440 66 161 0.0 5.0 0.00 0.00 0.00 44 1007.9
20260506072142 66 184 0.0 2.0 0.00 0.00 0.00 44 1008.0
20260506071422 67 127 0.0 0.0 0.00 0.00 0.00 43 1008.0
20260506070701 67 92 0.0 0.0 0.00 0.00 0.00 40 1008.0
20260506070356 67 92 0.0 0.0 0.00 0.00 0.00 41 1008.1
20260506061538 68 204 1.0 5.0 0.00 0.00 0.00 38 1008.8
20260506060809 67 138 0.0 6.0 0.00 0.00 0.00 38 1008.8
20260506050356 67 284 0.0 1.0 0.00 0.00 0.00 37 1009.5
20260506044713 68 198 0.0 0.0 0.00 0.00 0.00 35 1009.4
20260506044413 68 198 0.0 3.0 0.00 0.00 0.00 33 1009.4
20260506044108 68 241 0.0 0.0 0.00 0.00 0.00 33 1009.3
20260506043755 68 220 0.0 0.0 0.00 0.00 0.00 33 1009.4
20260506043444 68 220 0.0 4.0 0.00 0.00 0.00 33 1009.4
20260506043140 68 234 1.0 8.0 0.00 0.00 0.00 34 1009.3
20260506042827 68 236 1.0 8.0 0.00 0.00 0.00 34 1009.4
20260506042523 68 220 1.0 8.0 0.00 0.00 0.00 34 1009.4
20260506042220 68 183 2.0 8.0 0.00 0.00 0.00 34 1009.4
20260506041909 67 239 2.0 8.0 0.00 0.00 0.00 34 1009.4
20260506041612 67 196 2.0 8.0 0.00 0.00 0.00 35 1009.4
20260506041311 66 194 1.0 8.0 0.00 0.00 0.00 36 1009.3
20260506040547 65 221 0.0 3.0 0.00 0.00 0.00 39 1009.2
20260506040251 66 83 0.0 3.0 0.00 0.00 0.00 37 1009.2
20260506035947 66 315 0.0 1.0 0.00 0.00 0.00 40 1009.2
20260506035646 66 92 0.0 0.0 0.00 0.00 0.00 38 1009.3
20260506035348 66 98 0.0 0.0 0.00 0.00 0.00 37 1009.3
20260506034622 66 104 0.0 1.0 0.00 0.00 0.00 36 1009.4
20260506034319 66 162 0.0 0.0 0.00 0.00 0.00 36 1009.3
20260506033544 67 194 0.0 1.0 0.00 0.00 0.00 34 1009.3
20260506032817 67 223 0.0 3.0 0.00 0.00 0.00 34 1009.2
20260506032511 67 86 0.0 1.0 0.00 0.00 0.00 33 1009.2
20260506032214 67 171 0.0 1.0 0.00 0.00 0.00 33 1009.1
20260506031901 67 118 0.0 0.0 0.00 0.00 0.00 33 1009.1
20260506031603 67 110 0.0 4.0 0.00 0.00 0.00 33 1009.2
20260506031304 67 202 0.0 4.0 0.00 0.00 0.00 33 1009.2
20260506030537 67 165 0.0 4.0 0.00 0.00 0.00 33 1009.2
20260506030227 67 113 0.0 2.0 0.00 0.00 0.00 33 1009.2
20260506025915 67 132 0.0 3.0 0.00 0.00 0.00 33 1009.1
20260506025606 68 174 0.0 3.0 0.00 0.00 0.00 34 1009.2
20260506025256 68 147 0.0 3.0 0.00 0.00 0.00 34 1009.1
20260506024944 68 51 0.0 3.0 0.00 0.00 0.00 34 1009.1
20260506024646 68 220 0.0 3.0 0.00 0.00 0.00 33 1009.1
20260506023918 69 44 0.0 1.0 0.00 0.00 0.00 32 1009.2
20260506023605 69 41 0.0 1.0 0.00 0.00 0.00 32 1009.3
20260506023254 69 205 0.0 2.0 0.00 0.00 0.00 32 1009.3
20260506022957 69 209 0.0 2.0 0.00 0.00 0.00 31 1009.3
20260506022701 70 116 0.0 0.0 0.00 0.00 0.00 30 1009.3
20260506022353 70 116 0.0 0.0 0.00 0.00 0.00 30 1009.2
20260506020732 71 192 1.0 5.0 0.00 0.00 0.00 29 1009.3
20260506020428 71 157 0.0 5.0 0.00 0.00 0.00 30 1009.3
20260506015705 71 186 0.0 1.0 0.00 0.00 0.00 29 1009.3
20260506015408 71 307 0.0 4.0 0.00 0.00 0.00 29 1009.2
20260506015106 72 250 0.0 4.0 0.00 0.00 0.00 29 1009.1
20260506014810 72 187 0.0 4.0 0.00 0.00 0.00 28 1009.0
20260506014508 72 206 0.0 4.0 0.00 0.00 0.00 28 1008.9
20260506014159 72 266 1.0 8.0 0.00 0.00 0.00 28 1008.9
20260506013431 72 238 1.0 8.0 0.00 0.00 0.00 28 1008.8
20260506013131 72 242 1.0 8.0 0.00 0.00 0.00 28 1008.8
20260506012411 72 219 0.0 8.0 0.00 0.00 0.00 30 1008.6
20260506012113 72 161 0.0 3.0 0.00 0.00 0.00 28 1008.6
20260506011816 72 208 0.0 4.0 0.00 0.00 0.00 28 1008.5
20260506011515 73 178 0.0 4.0 0.00 0.00 0.00 28 1008.5
20260506011209 73 222 1.0 4.0 0.00 0.00 0.00 28 1008.4
20260506010856 73 258 1.0 8.0 0.00 0.00 0.00 28 1008.4
20260506010129 73 184 1.0 8.0 0.00 0.00 0.00 28 1008.3
20260506005831 74 217 1.0 8.0 0.00 0.00 0.00 27 1008.4
20260506005528 74 206 1.0 8.0 0.00 0.00 0.00 26 1008.4
20260506005223 74 193 1.0 8.0 0.00 0.00 0.00 26 1008.3
20260506004926 74 213 1.0 6.0 0.00 0.00 0.00 26 1008.3
20260506004622 74 184 1.0 6.0 0.00 0.00 0.00 26 1008.3
20260506003901 75 146 2.0 11.0 0.00 0.00 0.00 25 1008.2
20260506003602 75 147 3.0 11.0 0.00 0.00 0.00 25 1008.2
20260506003306 75 212 2.0 13.0 0.00 0.00 0.00 25 1008.2
20260506003006 75 274 3.0 13.0 0.00 0.00 0.00 26 1008.1
20260506001830 76 75 3.0 13.0 0.00 0.00 0.00 25 1008.1
20260506001525 76 192 3.0 13.0 0.00 0.00 0.00 25 1008.0
20260506001212 76 183 3.0 12.0 0.00 0.00 0.00 25 1008.0
20260506000907 76 154 4.0 12.0 0.00 0.00 0.00 25 1007.9
20260506000606 76 263 4.0 12.0 0.00 0.00 0.00 24 1007.8
20260506000305 76 183 3.0 12.0 0.00 0.00 0.00 25 1007.8
20260505235951 76 215 3.0 12.0 0.00 0.00 0.00 24 1007.8
20260505235651 77 202 4.0 12.0 0.00 0.00 0.00 24 1007.8
20260505235343 77 202 4.0 12.0 0.00 0.00 0.00 24 1007.8
20260505235041 77 126 4.0 12.0 0.00 0.00 0.00 24 1007.8
20260505234744 77 225 5.0 12.0 0.00 0.00 0.00 24 1007.8
20260505234443 77 246 5.0 12.0 0.00 0.00 0.00 24 1007.8
20260505234139 77 227 4.0 9.0 0.00 0.00 0.00 24 1007.8
20260505233830 77 213 3.0 9.0 0.00 0.00 0.00 25 1007.8
20260505233519 77 227 2.0 9.0 0.00 0.00 0.00 25 1007.7
20260505233206 77 222 2.0 9.0 0.00 0.00 0.00 26 1007.7
20260505232856 77 209 2.0 9.0 0.00 0.00 0.00 25 1007.7
20260505232549 77 217 3.0 9.0 0.00 0.00 0.00 25 1007.6
20260505232247 77 219 3.0 9.0 0.00 0.00 0.00 26 1007.7
20260505231935 78 137 3.0 9.0 0.00 0.00 0.00 25 1007.7
20260505231635 78 148 3.0 14.0 0.00 0.00 0.00 25 1007.6
20260505231335 78 175 3.0 14.0 0.00 0.00 0.00 26 1007.7
20260505230557 78 169 4.0 15.0 0.00 0.00 0.00 25 1007.7